FW1042 Weather Reports


Display with metric or nautical units.
time (UTC)temp
F
wind
direction
speed
MPH
gust
MPH
rain 1hr
in
rain 24hr
in
rain mn
in
humidity
%
barometer
mb
20260903172111 87 132 4.0 10.0 0.00 0.00 0.00 74 1013.7
20260903171612 87 165 5.0 12.0 0.00 0.00 0.00 73 1013.8
20260903171112 87 167 5.0 12.0 0.00 0.00 0.00 73 1013.9
20260903170612 87 210 4.0 12.0 0.00 0.00 0.00 75 1013.8
20260903170112 86 166 4.0 12.0 0.00 0.00 0.00 75 1013.8
20260903165616 86 147 4.0 9.0 0.00 0.00 0.00 75 1013.8
20260903165402 86 128 4.0 9.0 0.00 0.00 0.00 75 1013.8
20260903164613 86 176 3.0 9.0 0.00 0.00 0.00 76 1013.7
20260903164110 86 199 4.0 12.0 0.00 0.00 0.00 76 1013.8
20260903163610 86 178 4.0 12.0 0.00 0.00 0.00 76 1013.8
20260903163110 85 211 3.0 8.0 0.00 0.00 0.00 78 1013.9
20260903162609 85 171 3.0 8.0 0.00 0.00 0.00 79 1013.8
20260903162114 84 140 3.0 7.0 0.00 0.00 0.00 81 1013.9
20260903161609 83 127 3.0 7.0 0.00 0.00 0.00 80 1013.8
20260903161110 83 127 3.0 9.0 0.00 0.00 0.00 81 1013.9
20260903160607 83 212 3.0 9.0 0.00 0.00 0.00 81 1013.8
20260903160108 83 123 3.0 9.0 0.00 0.00 0.00 81 1013.8
20260903155640 83 102 4.0 9.0 0.00 0.00 0.00 81 1013.9
20260903154607 83 209 4.0 9.0 0.00 0.00 0.00 80 1013.7
20260903154106 83 200 4.0 9.0 0.00 0.00 0.00 80 1013.8
20260903153605 83 124 3.0 9.0 0.00 0.00 0.00 80 1013.7
20260903153106 83 108 3.0 9.0 0.00 0.00 0.00 81 1013.7
20260903152606 83 148 3.0 9.0 0.00 0.00 0.00 81 1013.7
20260903152106 83 168 3.0 10.0 0.00 0.00 0.00 82 1013.7
20260903151901 82 145 4.0 10.0 0.00 0.00 0.00 82 1013.7
20260903151109 82 192 3.0 7.0 0.00 0.00 0.00 83 1013.6
20260903150605 82 168 3.0 7.0 0.00 0.00 0.00 84 1013.7
20260903150106 81 152 3.0 7.0 0.00 0.00 0.00 84 1013.8
20260903145605 81 158 3.0 9.0 0.00 0.00 0.00 85 1013.7
20260903145106 81 130 3.0 9.0 0.00 0.00 0.00 85 1013.7
20260903144904 80 170 2.0 6.0 0.00 0.00 0.00 86 1013.8
20260903144103 80 161 3.0 9.0 0.00 0.00 0.00 86 1013.8
20260903143606 80 120 3.0 9.0 0.00 0.00 0.00 86 1013.7
20260903143102 80 178 3.0 10.0 0.00 0.00 0.00 86 1013.7
20260903142602 80 182 3.0 10.0 0.00 0.00 0.00 86 1013.8
20260903142101 80 117 2.0 6.0 0.00 0.00 0.00 86 1013.8
20260903141601 80 126 2.0 8.0 0.00 0.00 0.00 86 1013.8
20260903141103 80 143 2.0 8.0 0.00 0.00 0.00 86 1014.0
20260903140555 80 98 2.0 7.0 0.00 0.00 0.00 86 1013.9
20260903140050 80 61 2.0 7.0 0.00 0.00 0.00 86 1013.9
20260903135549 80 182 2.0 5.0 0.00 0.00 0.00 86 1013.8
20260903135051 79 119 2.0 7.0 0.00 0.00 0.00 86 1013.8
20260903134838 79 94 2.0 7.0 0.00 0.00 0.00 85 1013.8
20260903134048 79 328 1.0 4.0 0.00 0.00 0.00 85 1013.7
20260903133547 79 104 1.0 3.0 0.00 0.00 0.00 85 1013.8
20260903133048 80 304 1.0 4.0 0.00 0.00 0.00 85 1013.7
20260903132549 79 72 2.0 8.0 0.00 0.00 0.00 85 1013.7
20260903132048 79 174 2.0 8.0 0.00 0.00 0.00 85 1013.8
20260903131548 79 117 2.0 5.0 0.00 0.00 0.00 85 1013.7
20260903131048 79 157 2.0 5.0 0.00 0.00 0.00 85 1013.7
20260903130548 79 187 1.0 4.0 0.00 0.00 0.00 85 1013.6
20260903130346 79 200 1.0 4.0 0.00 0.00 0.00 85 1013.6
20260903125549 79 184 1.0 4.0 0.00 0.00 0.00 85 1013.6
20260903125048 79 163 2.0 6.0 0.00 0.00 0.00 85 1013.6
20260903124548 79 182 2.0 6.0 0.00 0.00 0.00 85 1013.5
20260903124047 78 168 2.0 6.0 0.00 0.00 0.00 85 1013.5
20260903123841 78 205 2.0 9.0 0.00 0.00 0.00 86 1013.4
20260903123048 78 138 2.0 9.0 0.00 0.00 0.00 85 1013.4
20260903122545 78 171 2.0 7.0 0.00 0.00 0.00 85 1013.4
20260903122045 78 161 1.0 7.0 0.00 0.00 0.00 85 1013.3
20260903121543 78 103 1.0 4.0 0.00 0.00 0.00 85 1013.2
20260903121043 78 144 1.0 3.0 0.00 0.00 0.00 85 1013.1
20260903120544 78 172 1.0 4.0 0.00 0.00 0.00 85 1013.1
20260903120041 78 188 1.0 4.0 0.00 0.00 0.00 85 1013.2
20260903115837 78 130 1.0 3.0 0.00 0.00 0.00 85 1013.0
20260903115337 78 134 1.0 3.0 0.00 0.00 0.00 85 1013.0
20260903114536 78 155 1.0 3.0 0.00 0.00 0.00 85 1012.9
20260903114036 78 161 1.0 4.0 0.00 0.00 0.00 86 1012.9
20260903113535 78 147 1.0 4.0 0.00 0.00 0.00 86 1012.9
20260903113035 78 225 1.0 4.0 0.00 0.00 0.00 87 1012.9
20260903112538 78 173 1.0 4.0 0.00 0.00 0.00 87 1013.0
20260903112033 78 172 0.0 3.0 0.00 0.00 0.00 88 1013.0
20260903111532 78 122 0.0 3.0 0.00 0.00 0.00 88 1013.1
20260903111030 78 173 0.0 2.0 0.00 0.00 0.00 88 1013.0
20260903110748 78 144 0.0 2.0 0.00 0.00 0.00 88 1012.7
20260903110704 78 109 0.0 2.0 0.00 0.00 0.00 88 1012.9
20260903110436 78 153 0.0 3.0 0.00 0.00 0.00 88 1012.7
20260903110338 78 144 0.0 0.0 0.00 0.00 0.00 88 1012.9
20260903110218 78 144 0.0 1.0 0.00 0.00 0.00 88 1012.6
20260903110116 78 144 0.0 2.0 0.00 0.00 0.00 88 1012.8
20260903104017 78 153 0.0 3.0 0.00 0.00 0.00 88 1012.7
20260903103517 78 193 1.0 4.0 0.00 0.00 0.00 88 1012.6
20260903103021 78 167 1.0 4.0 0.00 0.00 0.00 88 1012.5
20260903102517 78 153 1.0 3.0 0.00 0.00 0.00 88 1012.6
20260903102017 78 182 1.0 6.0 0.00 0.00 0.00 88 1012.7
20260903101517 78 194 1.0 6.0 0.00 0.00 0.00 88 1012.8
20260903101017 78 182 1.0 4.0 0.00 0.00 0.00 88 1012.7
20260903100516 78 140 1.0 3.0 0.00 0.00 0.00 88 1012.7
20260903100013 78 153 0.0 2.0 0.00 0.00 0.00 88 1012.7
20260903095805 78 174 0.0 4.0 0.00 0.00 0.00 88 1012.7
20260903095013 78 202 1.0 4.0 0.00 0.00 0.00 88 1012.7
20260903094510 78 126 0.0 3.0 0.00 0.00 0.00 87 1012.8
20260903094009 78 21 1.0 3.0 0.00 0.00 0.00 87 1012.9
20260903093808 78 119 1.0 3.0 0.00 0.00 0.00 87 1012.9
20260903093009 78 125 1.0 3.0 0.00 0.00 0.00 87 1012.8
20260903092803 78 122 1.0 3.0 0.00 0.00 0.00 86 1012.9
20260903092003 78 84 1.0 4.0 0.00 0.00 0.00 86 1012.8
20260903091501 78 315 1.0 4.0 0.00 0.00 0.00 86 1012.8
20260903091256 78 101 1.0 3.0 0.00 0.00 0.00 85 1012.6
20260903090503 79 5 1.0 6.0 0.00 0.00 0.00 85 1012.7
20260903090306 79 42 1.0 6.0 0.00 0.00 0.00 84 1012.7
20260903085503 79 211 1.0 3.0 0.00 0.00 0.00 84 1012.7
20260903085002 79 39 1.0 6.0 0.00 0.00 0.00 83 1012.6
20260903084501 79 15 2.0 6.0 0.00 0.00 0.00 83 1012.7
20260903084000 80 86 2.0 6.0 0.00 0.00 0.00 82 1012.8
20260903083459 80 214 2.0 4.0 0.00 0.00 0.00 82 1012.7
20260903082959 80 115 2.0 7.0 0.00 0.00 0.00 81 1012.7
20260903082500 80 160 2.0 7.0 0.00 0.00 0.00 81 1012.6
20260903081959 80 288 2.0 7.0 0.00 0.00 0.00 81 1012.6
20260903081754 80 18 1.0 7.0 0.00 0.00 0.00 80 1012.7
20260903080959 80 217 1.0 4.0 0.00 0.00 0.00 80 1012.7
20260903080759 80 43 1.0 4.0 0.00 0.00 0.00 80 1012.5
20260903080302 80 82 1.0 4.0 0.00 0.00 0.00 80 1012.5
20260903075457 80 92 1.0 7.0 0.00 0.00 0.00 80 1012.5
20260903074959 80 176 1.0 7.0 0.00 0.00 0.00 80 1012.5
20260903074457 80 102 1.0 3.0 0.00 0.00 0.00 80 1012.6
20260903073957 80 128 1.0 6.0 0.00 0.00 0.00 80 1012.5
20260903073457 80 175 1.0 6.0 0.00 0.00 0.00 80 1012.5
20260903072956 80 167 1.0 3.0 0.00 0.00 0.00 80 1012.7
20260903072457 80 226 1.0 3.0 0.00 0.00 0.00 80 1012.7
20260903071956 80 154 1.0 5.0 0.00 0.00 0.00 80 1012.8
20260903071454 80 117 1.0 5.0 0.00 0.00 0.00 80 1012.8
20260903070951 80 139 1.0 6.0 0.00 0.00 0.00 80 1012.8
20260903070445 80 111 1.0 6.0 0.00 0.00 0.00 80 1012.8
20260903065944 80 154 1.0 6.0 0.00 0.00 0.00 80 1012.8
20260903065443 80 155 2.0 4.0 0.00 0.00 0.00 79 1012.9
20260903064943 80 142 2.0 8.0 0.00 0.00 0.00 79 1012.8
20260903064442 80 167 2.0 8.0 0.00 0.00 0.00 79 1012.9
20260903063942 80 159 2.0 7.0 0.00 0.00 0.00 79 1012.9
20260903063445 80 94 1.0 4.0 0.00 0.00 0.00 78 1013.0
20260903062939 80 106 1.0 4.0 0.00 0.00 0.00 78 1012.9
20260903062440 80 128 1.0 6.0 0.00 0.00 0.00 78 1013.0
20260903061937 80 124 1.0 6.0 0.00 0.00 0.00 77 1013.0
20260903061435 80 131 2.0 7.0 0.00 0.00 0.00 77 1013.0
20260903061228 80 137 2.0 7.0 0.00 0.00 0.00 77 1013.1
20260903060434 80 163 2.0 6.0 0.00 0.00 0.00 76 1013.2
20260903055931 81 134 2.0 8.0 0.00 0.00 0.00 76 1013.3
20260903055436 81 237 2.0 8.0 0.00 0.00 0.00 76 1013.3
20260903054929 81 158 2.0 6.0 0.00 0.00 0.00 75 1013.3
20260903054430 81 344 2.0 8.0 0.00 0.00 0.00 75 1013.4
20260903053929 81 136 3.0 8.0 0.00 0.00 0.00 74 1013.4
20260903053429 81 209 3.0 8.0 0.00 0.00 0.00 74 1013.4
20260903052928 81 94 3.0 9.0 0.00 0.00 0.00 74 1013.4
20260903052430 82 165 4.0 12.0 0.00 0.00 0.00 73 1013.5
20260903051931 82 110 4.0 12.0 0.00 0.00 0.00 72 1013.4
20260903051429 82 257 3.0 10.0 0.00 0.00 0.00 72 1013.3
20260903050930 82 117 3.0 10.0 0.00 0.00 0.00 71 1013.3
20260903050425 83 17 4.0 10.0 0.00 0.00 0.00 71 1013.4
20260903045925 83 134 3.0 9.0 0.00 0.00 0.00 70 1013.3
20260903045424 83 148 3.0 9.0 0.00 0.00 0.00 70 1013.2
20260903044926 83 128 3.0 9.0 0.00 0.00 0.00 69 1013.2
20260903044426 83 92 3.0 9.0 0.00 0.00 0.00 69 1013.1
20260903043926 83 257 3.0 11.0 0.00 0.00 0.00 68 1013.2
20260903043423 84 151 3.0 11.0 0.00 0.00 0.00 68 1013.1
20260903042923 84 126 3.0 10.0 0.00 0.00 0.00 68 1013.2
20260903042420 84 111 3.0 8.0 0.00 0.00 0.00 67 1013.2
20260903041921 84 147 3.0 12.0 0.00 0.00 0.00 67 1013.2
20260903041418 84 128 3.0 12.0 0.00 0.00 0.00 66 1013.2
20260903040919 85 167 3.0 10.0 0.00 0.00 0.00 66 1013.3
20260903040430 85 98 3.0 11.0 0.00 0.00 0.00 65 1013.3
20260903035918 85 194 4.0 11.0 0.00 0.00 0.00 65 1013.3
20260903035418 85 162 3.0 12.0 0.00 0.00 0.00 64 1013.3
20260903034918 85 192 2.0 12.0 0.00 0.00 0.00 64 1013.4
20260903034715 85 5 2.0 7.0 0.00 0.00 0.00 63 1013.4
20260903033919 85 116 2.0 6.0 0.00 0.00 0.00 63 1013.4
20260903033418 86 134 2.0 8.0 0.00 0.00 0.00 63 1013.5
20260903032923 86 139 3.0 12.0 0.00 0.00 0.00 62 1013.4
20260903032710 86 25 3.0 12.0 0.00 0.00 0.00 62 1013.4
20260903031919 86 101 4.0 12.0 0.00 0.00 0.00 61 1013.4
20260903031419 87 5 5.0 12.0 0.00 0.00 0.00 61 1013.4
20260903030920 87 77 4.0 12.0 0.00 0.00 0.00 61 1013.3
20260903030418 87 147 4.0 12.0 0.00 0.00 0.00 60 1013.2
20260903025918 88 153 4.0 12.0 0.00 0.00 0.00 59 1013.2
20260903025416 88 139 4.0 12.0 0.00 0.00 0.00 59 1013.1
20260903024916 89 171 5.0 11.0 0.00 0.00 0.00 58 1013.0
20260903024416 89 214 4.0 11.0 0.00 0.00 0.00 57 1013.0
20260903023917 89 162 4.0 11.0 0.00 0.00 0.00 56 1012.9
20260903023418 90 94 4.0 11.0 0.00 0.00 0.00 55 1012.9
20260903023208 90 20 3.0 10.0 0.00 0.00 0.00 54 1012.8
20260903022513 90 81 4.0 10.0 0.00 0.00 0.00 53 1012.6
20260903022453 90 348 3.0 9.0 0.00 0.00 0.00 53 1012.7
20260903021415 90 161 4.0 10.0 0.00 0.00 0.00 52 1012.6
20260903020914 91 100 3.0 9.0 0.00 0.00 0.00 52 1012.5
20260903020415 91 105 3.0 9.0 0.00 0.00 0.00 52 1012.4
20260903015915 91 217 3.0 8.0 0.00 0.00 0.00 52 1012.4
20260903015414 91 149 4.0 11.0 0.00 0.00 0.00 52 1012.3
20260903014914 91 159 3.0 11.0 0.00 0.00 0.00 51 1012.3
20260903014415 91 190 3.0 10.0 0.00 0.00 0.00 51 1012.2
20260903013915 92 17 3.0 10.0 0.00 0.00 0.00 51 1012.2
20260903013414 92 209 3.0 9.0 0.00 0.00 0.00 51 1012.0
20260903012914 92 217 3.0 10.0 0.00 0.00 0.00 50 1012.0
20260903012754 92 142 2.0 8.0 0.00 0.00 0.00 51 1011.8
20260903012749 92 108 3.0 10.0 0.00 0.00 0.00 51 1011.8
20260903011411 92 90 2.0 9.0 0.00 0.00 0.00 50 1011.8
20260903010910 93 33 3.0 10.0 0.00 0.00 0.00 50 1011.7
20260903010408 93 178 4.0 10.0 0.00 0.00 0.00 50 1011.6
20260903005908 93 29 3.0 9.0 0.00 0.00 0.00 49 1011.6
20260903005408 94 90 3.0 8.0 0.00 0.00 0.00 49 1011.5
20260903004904 94 170 3.0 10.0 0.00 0.00 0.00 49 1011.5
20260903004406 94 136 3.0 10.0 0.00 0.00 0.00 48 1011.6
20260903003905 94 190 3.0 7.0 0.00 0.00 0.00 47 1011.6
20260903003406 94 124 3.0 10.0 0.00 0.00 0.00 48 1011.5
20260903003202 95 165 3.0 10.0 0.00 0.00 0.00 48 1011.6
20260903002402 95 168 3.0 10.0 0.00 0.00 0.00 48 1011.6
20260903001904 95 182 3.0 8.0 0.00 0.00 0.00 48 1011.5
20260903001402 96 173 3.0 10.0 0.00 0.00 0.00 47 1011.4
20260903000902 96 144 3.0 10.0 0.00 0.00 0.00 46 1011.4
20260903000402 97 202 3.0 10.0 0.00 0.00 0.00 45 1011.3
20260902235903 98 63 3.0 11.0 0.00 0.00 0.00 44 1011.4
20260902235654 98 117 2.0 11.0 0.00 0.00 0.00 43 1011.3
20260902234902 98 124 3.0 9.0 0.00 0.00 0.00 42 1011.3
20260902234403 98 286 3.0 10.0 0.00 0.00 0.00 41 1011.2
20260902233902 98 92 2.0 10.0 0.00 0.00 0.00 42 1011.2
20260902233402 98 63 3.0 6.0 0.00 0.00 0.00 42 1011.1
20260902232902 98 315 3.0 7.0 0.00 0.00 0.00 41 1011.1
20260902232403 99 316 3.0 10.0 0.00 0.00 0.00 41 1011.2
20260902231902 99 173 3.0 10.0 0.00 0.00 0.00 40 1011.2
20260902231356 99 54 3.0 10.0 0.00 0.00 0.00 40 1011.1
20260902230856 99 169 2.0 10.0 0.00 0.00 0.00 40 1011.1
20260902230355 99 74 2.0 7.0 0.00 0.00 0.00 41 1011.3
20260902230205 100 305 2.0 8.0 0.00 0.00 0.00 40 1011.1
20260902225355 100 86 3.0 8.0 0.00 0.00 0.00 40 1011.2
20260902224854 101 138 2.0 6.0 0.00 0.00 0.00 38 1011.1
20260902224354 101 5 2.0 7.0 0.00 0.00 0.00 39 1011.0
20260902223853 101 265 2.0 7.0 0.00 0.00 0.00 38 1011.2
20260902223354 101 145 2.0 7.0 0.00 0.00 0.00 40 1011.1
20260902222854 100 324 3.0 7.0 0.00 0.00 0.00 39 1011.1
20260902222354 100 152 3.0 10.0 0.00 0.00 0.00 39 1011.3
20260902221854 100 150 2.0 10.0 0.00 0.00 0.00 39 1011.3
20260902221358 100 330 2.0 8.0 0.00 0.00 0.00 39 1011.3
20260902220855 100 334 2.0 8.0 0.00 0.00 0.00 40 1011.4
20260902220356 100 136 2.0 6.0 0.00 0.00 0.00 39 1011.3
20260902215855 100 19 3.0 7.0 0.00 0.00 0.00 39 1011.4
20260902215355 100 84 3.0 9.0 0.00 0.00 0.00 39 1011.6
20260902214853 100 121 3.0 9.0 0.00 0.00 0.00 40 1011.6
20260902214353 100 24 3.0 9.0 0.00 0.00 0.00 41 1011.6
20260902213856 100 152 3.0 9.0 0.00 0.00 0.00 42 1011.7
20260902213352 99 292 2.0 9.0 0.00 0.00 0.00 42 1011.7
20260902212852 99 38 2.0 9.0 0.00 0.00 0.00 42 1011.8
20260902212353 100 15 2.0 8.0 0.00 0.00 0.00 39 1011.9
20260902211852 100 156 2.0 8.0 0.00 0.00 0.00 39 1012.0
20260902211352 101 32 2.0 8.0 0.00 0.00 0.00 40 1011.8
20260902210850 100 46 2.0 6.0 0.00 0.00 0.00 42 1012.0
20260902210354 100 319 2.0 6.0 0.00 0.00 0.00 40 1012.1
20260902205851 100 229 2.0 7.0 0.00 0.00 0.00 41 1012.2
20260902205351 100 338 2.0 7.0 0.00 0.00 0.00 41 1012.2
20260902205142 99 355 2.0 9.0 0.00 0.00 0.00 43 1012.3
20260902204348 99 26 3.0 9.0 0.00 0.00 0.00 41 1012.3
20260902203849 98 350 2.0 8.0 0.00 0.00 0.00 43 1012.3
20260902203347 98 304 2.0 6.0 0.00 0.00 0.00 44 1012.4
20260902203142 98 27 3.0 9.0 0.00 0.00 0.00 44 1012.5
20260902202347 98 342 3.0 11.0 0.00 0.00 0.00 43 1012.6
20260902201848 98 314 3.0 11.0 0.00 0.00 0.00 44 1012.8
20260902201348 98 290 2.0 9.0 0.00 0.00 0.00 43 1013.0
20260902200848 98 339 2.0 8.0 0.00 0.00 0.00 42 1013.0
20260902200348 98 92 2.0 7.0 0.00 0.00 0.00 41 1013.1
20260902195846 98 195 2.0 7.0 0.00 0.00 0.00 44 1013.1
20260902195632 98 333 2.0 7.0 0.00 0.00 0.00 43 1013.2
20260902195140 98 5 2.0 7.0 0.00 0.00 0.00 43 1013.4
20260902194345 98 161 2.0 7.0 0.00 0.00 0.00 44 1013.4
20260902194235 96 338 3.0 9.0 0.00 0.00 0.00 46 1013.5
20260902194230 96 205 2.0 7.0 0.00 0.00 0.00 48 1013.5
20260902192843 97 295 3.0 9.0 0.00 0.00 0.00 47 1013.6
20260902192342 97 82 3.0 7.0 0.00 0.00 0.00 46 1013.7
20260902191842 97 346 2.0 8.0 0.00 0.00 0.00 44 1013.9
20260902191342 97 131 1.0 8.0 0.00 0.00 0.00 47 1013.8
20260902190842 96 257 1.0 4.0 0.00 0.00 0.00 47 1014.0
20260902190342 95 15 2.0 5.0 0.00 0.00 0.00 48 1014.1
20260902185842 96 313 2.0 7.0 0.00 0.00 0.00 45 1014.1
20260902185342 96 344 2.0 7.0 0.00 0.00 0.00 46 1014.2
20260902184937 96 29 2.0 6.0 0.00 0.00 0.00 47 1014.4
20260902184916 96 355 2.0 6.0 0.00 0.00 0.00 45 1014.3
20260902183842 95 289 2.0 6.0 0.00 0.00 0.00 49 1014.5
20260902183342 95 141 3.0 7.0 0.00 0.00 0.00 47 1014.5
20260902182842 95 320 2.0 7.0 0.00 0.00 0.00 47 1014.6
20260902182635 95 157 2.0 7.0 0.00 0.00 0.00 50 1014.6
20260902182131 95 275 2.0 7.0 0.00 0.00 0.00 48 1014.7
20260902181344 95 105 2.0 6.0 0.00 0.00 0.00 50 1014.8
20260902180841 95 300 2.0 6.0 0.00 0.00 0.00 51 1014.9
20260902180326 95 5 2.0 5.0 0.00 0.00 0.00 50 1015.0
20260902175827 95 332 2.0 5.0 0.00 0.00 0.00 48 1015.0
20260902175325 95 202 2.0 8.0 0.00 0.00 0.00 49 1015.2
20260902174825 95 104 2.0 8.0 0.00 0.00 0.00 50 1015.2
20260902174325 95 269 2.0 5.0 0.00 0.00 0.00 51 1015.3
20260902173826 95 186 2.0 6.0 0.00 0.00 0.00 52 1015.3
20260902173624 95 32 2.0 6.0 0.00 0.00 0.00 50 1015.4
20260902172826 94 146 1.0 5.0 0.00 0.00 0.00 53 1015.3
20260902172326 93 192 2.0 8.0 0.00 0.00 0.00 53 1015.5